Location: Usti nad Labem
(50.6670°N, 14.0330°E)
Time: 22:16:39
(UTC+01:00)

Envisat - Pass Details

Date: 05 December 2020
Orbit: 764 x 766 km, 98.1° (Epoch: 15 January)

Event Time Altitude Azimuth Distance (km) Brightness Sun altitude
Rises 16:47:24 0° 161° (SSE) 3,222 6.3 -7.2°
Reaches altitude 10° 16:49:42 10° 161° (SSE) 2,300 5.6 -7.6°
Maximum altitude 16:54:47 84° 73° (ENE) 778 3.0 -8.3°
Drops below altitude 10° 16:59:54 10° 347° (NNW) 2,316 5.4 -9.0°
Sets 17:02:13 0° 347° (NNW) 3,247 6.1 -9.4°
